SCP
-0 -0 -0 -0 -0 0 0 -0 -0 -0 -0 -0 -0 0 -0 -0 -0 -0 -0 -0 -0 -0 -0 -0 -0 -0 -0 -0 -0 -0 -0 -0 -0 -0 -0 -0 -0 -0 -0 -0 -0 0 -0
0 -0 -0 -0 -0 0 0 0 -0 -0 -0 -0 -0 -0 -0 -0 -0 -0 -0 -0 -0 -0 -0 -0 -0 -0 -0 -0 -0 -0 -0 -0 0 -0 -0 -0 -0 -0 -0 -0 -0 0 -0
0 -0 -0 -0 -0 0 -0 -0 -0 -0 -0 -0 -0 -0 -0 -0 -0 -0 -0 -0 -0 -0 -0 -0 -0 -0 -0 -0 -0 0 0 0 0 -0 -0 0 0 -0 -0 -0 -0 -0 -0
-0 -0 -0 -0 -0 -0 -0 0 0 0 -0 -0 -0 -0 -0 -0 -0 -0 -0 -0 -0 -0 -0 -0 -0 -0 -0 0 0 0 0 0 -0 -0 0 0 0 -0 -0 -0 -0 -0 0
-0 0 -0 0 0 -0 0 0 0 0 0 0 0 -0 0 0 0 0 -0 -0 -0 -0 -0 -0 -0 -0 -0 0 0 0 0 0 -0 0 0 0 -0 -0 -0 -0 -0 -0 0
0 -0 -0 -0 -0 -0 -0 0 0 -0 0 0 0 0 0 -0 0 0 0 -0 -0 -0 -0 -0 -0 -0 -0 0 0 0 -0 0 0 0 0 0 0 -0 -0 -0 -0 0 0
-0 -0 -0 -0 -0 -0 -0 -0 0 0 0 0 0 0 0 0 0 0 0 -0 -0 -0 -0 -0 -0 -0 0 -0 0 0 -0 0 0 0 0 0 0 -0 -0 -0 -0 0 0
-0 -0 -0 -0 -0 -0 -0 -0 -0 -0 0 0 0 0 0 0 0 0 0 -0 -0 0 0 0 0 -0 -0 -0 0 0 0 0 0 0 0 0 0 0 0 0 0 0 0
0 -0 -0 0 0 -0 -0 -0 -0 -0 -0 0 0 0 0 0 0 0 0 -0 0 0 -0 -0 -0 -0 -0 -0 -0 -0 0 0 0 0 0 0 0 0 0 0 0 0 0
-0 0 0 -0 -0 0 0 -0 -0 0 0 0 0 0 0 -0 0 0 0 -0 0 -0 -0 -0 -0 -0 -0 0 0 0 -0 -0 0 0 0 0 0 0 0 0 0 0 0
-0 -0 -0 -0 -0 0 0 0 0 0 0 0 0 -0 0 -0 0 -0 0 -0 -0 -0 -0 -0 0 0 0 0 0 0 0 0 0 0 0 0 0 0 0 0 0 0 0
0 0 -0 -0 -0 -0 -0 -0 -0 -0 0 -0 -0 -0 -0 0 0 0 0 -0 -0 -0 -0 0 0 0 0 0 0 0 0 0 0 0 0 0 0 0 0 0 0 0 0
0 0 0 -0 -0 -0 -0 0 -0 -0 0 -0 -0 -0 -0 -0 -0 -0 -0 -0 -0 -0 0 0 0 0 0 0 0 0 0 0 0 0 0 0 0 0 0 0 0 0 0
-0 -0 0 -0 -0 -0 0 -0 -0 0 -0 0 -0 -0 -0 -0 -0 -0 -0 -0 0 0 0 0 0 0 0 0 0 0 0 0 0 0 0 0 0 0 0 0 0 0 0
0 0 0 -0 -0 -0 -0 -0 -0 -0 -0 -0 -0 -0 -0 -0 0 0 0 0 0 0 0 0 0 0 0 0 0 0 0 0 0 0 0 0 0 0 0 0 0 0 0
0 0 0 0 -0 -0 -0 -0 -0 0 -0 -0 -0 0 -0 0 0 0 0 0 0 0 0 0 0 0 0 0 0 0 0 0 0 0 0 0 0 0 0 0 0 0 0
0 0 0 0 0 0 -0 -0 -0 -0 -0 0 0 0 0 0 0 0 0 0 0 0 0 0 0 0 0 0 0 0 0 0 0 0 0 0 0 0 0 0 0 0 0
0 0 0 0 0 0 0 -0 0 0 0 0 0 0 0 0 0 0 0 0 0 0 0 0 0 0 0 0 0 0 0 0 0 0 0 0 0 0 0 0 0 0 0
0 0 0 0 0 0 0 0 0 0 0 0 0 0 0 0 0 0 0 0 0 0 0 0 0 0 0 0 0 0 0 0 0 0 0 0 0 0 0 0 0 0 0
0 0 0 0 0 0 0 0 0 0 0 0 0 0 0 0 0 0 0 0 0 0 0 0 0 0 0 0 0 0 0 0 0 0 0 0 0 0 0 0 0 0 0
0 0 0 0 0 0 0 0 0 0 0 0 0 0 0 0 0 0 0 0 0 0 0 0 0 0 0 0 0 0 0 0 0 0 0 0 0 0 0 0 0 0 0
0 0 0 0 0 0 0 0 0 0 0 0 0 0 0 0 0 0 0 0 0 0 0 0 0 0 0 0 0 0 0 0 0 0 0 0 0 0 0 0 0 0 0
0 0 0 0 0 0 0 0 0 0 0 0 0 0 0 0 0 0 0 0 0 0 0 0 0 0 0 0 0 0 0 0 0 0 0 0 0 0 0 0 0 0 0
0 0 0 0 0 0 0 0 0 0 0 0 0 0 0 0 0 0 0 0 0 0 0 0 0 0 0 0 0 0 0 0 0 0 0 0 0 0 0 0 0 0 0
0 0 0 0 0 0 0 0 0 0 0 0 0 0 0 0 0 0 0 0 0 0 0 0 0 0 0 0 0 0 0 0 0 0 0 0 0 0 0 0 0 0 0
0 0 0 0 0 0 0 0 0 0 0 0 0 0 0 0 0 0 0 0 0 0 0 0 0 0 0 0 0 0 0 0 0 0 0 0 0 0 0 0 0 0 0
Wind_Speed_500mb
13 13 13 18 16 17 19 21 23 26 27 28 29 30 30 29 29 27 25 20 21 22 23 23 21 22 26 32 34 37 40 42 47 44 40 37 38 39 38 36 34 36 36
17 16 16 19 20 18 20 24 23 24 26 25 25 25 25 27 27 24 22 21 22 23 23 23 26 30 33 35 37 42 52 56 50 35 31 36 33 36 34 31 31 39 50
19 18 18 20 19 17 22 25 25 24 22 24 24 20 20 24 21 19 18 20 23 27 30 31 30 30 32 34 38 43 48 49 42 28 32 40 41 39 32 32 39 39 45
26 22 21 21 22 20 19 23 27 26 22 24 25 23 19 20 20 20 19 28 30 31 31 31 31 31 31 37 41 43 43 40 34 22 31 39 43 37 38 39 39 39 35
26 23 23 29 23 21 21 24 25 27 25 26 28 28 24 22 26 25 24 31 33 30 32 31 32 33 35 36 39 46 49 37 27 32 36 39 40 40 41 40 40 40 39
21 24 26 29 24 23 22 26 26 26 26 27 24 20 16 22 29 26 28 26 28 29 31 32 33 32 32 33 37 43 46 30 22 33 38 41 42 41 42 41 40 39 40
27 25 24 26 26 27 25 24 26 26 25 23 22 20 13 18 24 24 29 24 20 25 27 28 30 32 32 34 35 36 37 28 31 34 37 39 42 41 40 40 40 39 39
28 30 27 24 24 25 26 26 26 27 25 22 19 16 18 20 18 23 30 24 23 23 23 26 28 31 32 32 34 35 35 31 27 33 34 38 39 39 38 37 36 37 37
25 30 31 26 25 24 25 25 26 25 24 23 22 20 19 21 21 22 25 22 20 19 22 23 24 26 28 30 31 31 31 30 26 30 31 33 34 34 34 34 34 35 36
23 29 30 29 27 25 25 24 23 23 21 21 20 19 17 17 14 15 19 22 19 17 18 18 20 23 24 24 24 23 26 26 21 25 26 28 29 30 30 30 31 32 31
26 22 28 29 28 26 25 23 22 23 21 18 17 17 17 15 14 12 16 21 19 16 15 16 17 18 20 21 18 17 21 19 18 22 23 25 25 26 26 27 27 27 26
39 30 25 29 27 26 27 23 21 19 19 19 16 14 15 11 10 12 14 17 15 13 12 12 11 10 12 13 10 13 16 17 14 18 19 20 22 23 24 25 25 27 27
50 44 38 27 29 33 29 27 23 20 17 16 16 14 12 11 10 10 11 12 11 9 10 8 7 9 9 7 6 9 11 12 9 11 14 17 19 22 24 26 28 28 24
43 49 39 42 31 31 29 29 24 18 16 15 15 14 13 13 10 10 10 9 9 7 6 5 6 5 5 5 5 5 5 5 6 7 11 15 19 23 24 26 26 25 24
42 49 46 41 42 35 32 31 28 26 20 18 17 15 13 11 9 8 7 7 7 6 6 4 2 1 2 3 3 3 2 2 4 7 11 15 18 23 24 25 25 23 24
45 46 48 45 42 41 35 36 32 30 25 23 20 19 16 14 12 11 9 8 8 8 7 6 5 2 1 1 2 3 4 4 6 7 11 15 20 22 22 22 23 24 24
50 48 50 51 47 46 39 34 35 31 31 29 25 24 23 20 16 15 13 13 12 10 9 8 6 5 5 3 4 4 5 7 9 11 13 16 19 18 20 23 22 21 22
52 53 54 53 54 49 45 41 37 37 34 32 32 29 27 27 24 21 20 19 19 15 14 13 10 8 6 7 7 8 12 15 13 12 15 16 13 17 19 19 20 23 28
56 57 58 57 56 54 51 46 43 42 41 37 36 36 34 31 31 29 25 22 22 17 15 12 14 12 11 12 14 15 14 12 12 13 16 13 12 15 19 20 25 24 26
60 58 55 60 59 58 56 52 50 47 47 44 42 40 41 39 36 36 32 31 29 29 23 23 21 19 16 16 17 10 11 14 16 16 14 14 11 18 17 25 25 29 28
57 56 55 59 62 62 65 64 63 59 55 51 49 46 44 44 41 39 36 40 35 30 19 25 22 16 15 15 15 17 14 14 17 20 15 18 12 14 17 23 28 32 29
63 66 68 71 66 64 68 66 65 61 60 55 53 51 51 49 44 39 37 42 34 30 31 30 28 24 20 20 22 20 17 12 20 19 17 18 16 18 21 23 33 30 24
68 72 73 69 64 68 69 68 66 61 61 62 61 58 58 53 49 46 39 41 44 37 37 34 33 33 33 32 29 25 11 13 13 18 20 21 18 19 23 29 32 24 18
71 70 71 68 66 68 71 73 73 73 72 71 67 62 61 50 51 51 43 42 38 38 41 42 43 44 42 42 40 39 38 36 24 15 30 21 22 23 24 29 29 22 16
67 70 70 71 68 69 74 74 75 75 74 73 69 64 64 59 53 53 50 44 45 41 43 36 35 44 45 46 45 48 46 43 40 43 29 27 24 25 27 38 22 20 18
68 67 71 74 74 73 76 76 77 76 77 77 75 70 67 64 60 59 57 54 48 48 38 37 35 34 40 42 44 44 45 42 42 31 36 31 27 24 28 35 22 22 20
Wind_Direction_500mb
159 148 124 130 117 127 139 123 115 114 110 107 101 97 96 97 94 93 90 91 101 97 89 83 78 76 76 77 75 70 66 69 71 68 75 74 74 75 75 70 63 60 57
161 139 127 124 121 127 137 139 126 116 112 106 99 101 103 99 95 90 77 85 93 92 85 78 75 75 78 77 74 76 82 74 64 50 74 75 71 75 78 73 63 59 61
147 137 131 131 124 134 129 146 141 120 115 107 96 89 101 104 98 91 75 81 90 87 80 76 77 80 81 80 83 89 86 81 79 58 56 70 65 63 75 68 63 69 75
128 126 128 130 126 116 114 138 152 150 125 111 99 96 97 106 104 87 81 88 88 90 85 82 84 86 86 87 88 84 80 90 101 90 72 72 70 73 66 67 67 70 73
129 127 122 113 117 110 103 122 149 150 142 140 130 121 103 105 108 102 95 95 88 86 80 80 81 82 81 84 88 83 74 71 53 77 75 75 77 66 66 67 66 64 63
142 126 129 122 127 111 98 98 106 126 136 143 147 142 124 105 109 108 97 91 92 81 78 78 79 81 85 87 93 95 95 85 69 64 71 72 71 69 68 66 66 64 61
140 132 129 131 121 116 108 101 103 111 129 139 145 147 137 122 114 113 110 100 100 90 86 85 85 83 85 86 88 89 87 83 69 70 72 72 70 68 66 65 63 60 58
142 136 133 137 125 120 117 114 113 117 121 126 129 135 145 154 145 106 118 113 103 99 94 86 83 80 82 85 84 84 84 78 65 72 72 72 69 67 64 61 58 56 53
160 145 143 144 138 133 126 120 117 118 119 119 121 126 132 146 154 120 120 114 111 98 88 85 83 83 82 84 84 84 81 72 69 69 72 71 68 64 59 55 51 48 45
164 156 156 151 149 143 136 129 122 122 122 120 121 122 121 125 129 123 122 121 116 105 96 89 85 83 82 82 82 80 77 79 65 69 66 65 62 58 52 47 43 42 40
167 169 166 165 160 155 150 144 136 132 130 128 126 123 128 128 133 126 121 131 126 115 99 86 86 91 90 84 82 76 79 76 70 68 60 55 52 47 42 35 30 29 29
167 177 191 177 169 170 165 160 152 147 143 140 138 135 122 130 118 122 120 129 132 121 106 92 91 97 104 93 97 82 80 73 64 66 52 45 38 31 23 18 16 17 19
181 171 196 184 190 180 173 177 167 169 165 155 156 141 142 143 148 138 135 135 139 135 127 110 93 80 88 87 93 95 91 86 58 57 43 32 24 16 8 4 5 7 9
195 187 196 182 201 206 187 185 179 185 184 182 175 172 163 160 165 153 161 158 157 167 136 144 105 93 98 95 83 88 87 70 61 25 30 15 9 2 355 353 350 352 352
205 195 191 197 193 211 209 200 192 189 202 200 197 193 189 181 180 180 175 180 190 189 193 186 182 118 90 66 59 53 53 40 17 7 358 355 346 343 341 344 352 349 348
213 213 204 201 201 214 215 216 208 203 201 213 213 208 209 212 208 209 207 213 214 213 213 216 216 228 286 4 353 15 355 337 342 350 342 334 332 339 347 354 355 350 352
219 215 216 211 209 211 224 216 219 213 220 221 222 218 220 225 227 231 232 234 237 238 240 245 243 245 255 265 299 326 327 319 321 324 322 319 318 337 346 348 351 352 353
219 220 221 215 217 217 219 226 220 227 222 223 232 232 227 229 234 236 242 240 243 238 243 246 250 259 279 283 284 297 310 310 310 314 313 313 321 328 347 349 346 346 346
218 222 222 222 218 219 222 226 230 227 235 231 229 236 240 238 236 240 230 239 235 248 239 237 250 256 248 269 282 287 291 302 302 306 311 305 308 326 337 336 331 334 335
214 224 224 225 222 221 222 226 231 235 236 237 238 237 242 244 242 242 235 232 247 252 256 242 240 247 258 271 277 306 292 291 290 288 292 292 294 323 322 324 333 334 335
212 214 219 225 227 222 222 223 230 233 237 240 242 244 245 250 248 247 246 240 245 257 254 242 243 243 256 263 280 300 294 288 283 287 265 279 289 302 305 322 331 325 329
216 214 212 223 228 225 227 230 234 236 242 247 248 245 248 250 250 249 253 246 251 249 242 245 252 254 257 262 262 273 285 252 253 269 260 241 285 281 293 308 323 317 326
220 217 219 225 224 224 228 229 232 233 237 240 241 243 243 247 246 250 253 243 244 244 246 250 254 259 262 260 259 248 231 229 229 233 240 243 253 255 283 304 315 310 318
229 226 226 228 227 227 227 229 231 235 237 241 243 244 250 246 241 244 247 242 240 243 243 245 250 254 260 260 262 259 255 255 251 230 218 241 234 253 273 307 306 303 314
234 230 230 230 229 229 229 234 235 239 242 245 244 244 245 247 241 238 241 242 240 245 248 248 259 258 257 261 263 262 258 258 262 255 219 230 233 237 274 306 297 289 299
240 236 231 230 232 232 232 236 237 241 243 242 244 242 244 246 245 241 239 238 240 242 240 251 262 268 261 262 261 261 262 265 274 252 246 243 248 239 269 295 281 277 301
Wind_Speed_850mb
13 13 13 18 16 17 19 21 23 26 27 28 29 30 30 29 29 27 25 20 21 22 23 23 21 22 26 32 34 37 40 42 47 44 40 37 38 39 38 36 34 36 36
17 16 16 19 20 18 20 24 23 24 26 25 25 25 25 27 27 24 22 21 22 23 23 23 26 30 33 35 37 42 52 56 50 35 31 36 33 36 34 31 31 39 50
19 18 18 20 19 17 22 25 25 24 22 24 24 20 20 24 21 19 18 20 23 27 30 31 30 30 32 34 38 43 48 49 42 28 32 40 41 39 32 32 39 39 45
26 22 21 21 22 20 19 23 27 26 22 24 25 23 19 20 20 20 19 28 30 31 31 31 31 31 31 37 41 43 43 40 34 22 31 39 43 37 38 39 39 39 35
26 23 23 29 23 21 21 24 25 27 25 26 28 28 24 22 26 25 24 31 33 30 32 31 32 33 35 36 39 46 49 37 27 32 36 39 40 40 41 40 40 40 39
21 24 26 29 24 23 22 26 26 26 26 27 24 20 16 22 29 26 28 26 28 29 31 32 33 32 32 33 37 43 46 30 22 33 38 41 42 41 42 41 40 39 40
27 25 24 26 26 27 25 24 26 26 25 23 22 20 13 18 24 24 29 24 20 25 27 28 30 32 32 34 35 36 37 28 31 34 37 39 42 41 40 40 40 39 39
28 30 27 24 24 25 26 26 26 27 25 22 19 16 18 20 18 23 30 24 23 23 23 26 28 31 32 32 34 35 35 31 27 33 34 38 39 39 38 37 36 37 37
25 30 31 26 25 24 25 25 26 25 24 23 22 20 19 21 21 22 25 22 20 19 22 23 24 26 28 30 31 31 31 30 26 30 31 33 34 34 34 34 34 35 36
23 29 30 29 27 25 25 24 23 23 21 21 20 19 17 17 14 15 19 22 19 17 18 18 20 23 24 24 24 23 26 26 21 25 26 28 29 30 30 30 31 32 31
26 22 28 29 28 26 25 23 22 23 21 18 17 17 17 15 14 12 16 21 19 16 15 16 17 18 20 21 18 17 21 19 18 22 23 25 25 26 26 27 27 27 26
39 30 25 29 27 26 27 23 21 19 19 19 16 14 15 11 10 12 14 17 15 13 12 12 11 10 12 13 10 13 16 17 14 18 19 20 22 23 24 25 25 27 27
50 44 38 27 29 33 29 27 23 20 17 16 16 14 12 11 10 10 11 12 11 9 10 8 7 9 9 7 6 9 11 12 9 11 14 17 19 22 24 26 28 28 24
43 49 39 42 31 31 29 29 24 18 16 15 15 14 13 13 10 10 10 9 9 7 6 5 6 5 5 5 5 5 5 5 6 7 11 15 19 23 24 26 26 25 24
42 49 46 41 42 35 32 31 28 26 20 18 17 15 13 11 9 8 7 7 7 6 6 4 2 1 2 3 3 3 2 2 4 7 11 15 18 23 24 25 25 23 24
45 46 48 45 42 41 35 36 32 30 25 23 20 19 16 14 12 11 9 8 8 8 7 6 5 2 1 1 2 3 4 4 6 7 11 15 20 22 22 22 23 24 24
50 48 50 51 47 46 39 34 35 31 31 29 25 24 23 20 16 15 13 13 12 10 9 8 6 5 5 3 4 4 5 7 9 11 13 16 19 18 20 23 22 21 22
52 53 54 53 54 49 45 41 37 37 34 32 32 29 27 27 24 21 20 19 19 15 14 13 10 8 6 7 7 8 12 15 13 12 15 16 13 17 19 19 20 23 28
56 57 58 57 56 54 51 46 43 42 41 37 36 36 34 31 31 29 25 22 22 17 15 12 14 12 11 12 14 15 14 12 12 13 16 13 12 15 19 20 25 24 26
60 58 55 60 59 58 56 52 50 47 47 44 42 40 41 39 36 36 32 31 29 29 23 23 21 19 16 16 17 10 11 14 16 16 14 14 11 18 17 25 25 29 28
57 56 55 59 62 62 65 64 63 59 55 51 49 46 44 44 41 39 36 40 35 30 19 25 22 16 15 15 15 17 14 14 17 20 15 18 12 14 17 23 28 32 29
63 66 68 71 66 64 68 66 65 61 60 55 53 51 51 49 44 39 37 42 34 30 31 30 28 24 20 20 22 20 17 12 20 19 17 18 16 18 21 23 33 30 24
68 72 73 69 64 68 69 68 66 61 61 62 61 58 58 53 49 46 39 41 44 37 37 34 33 33 33 32 29 25 11 13 13 18 20 21 18 19 23 29 32 24 18
71 70 71 68 66 68 71 73 73 73 72 71 67 62 61 50 51 51 43 42 38 38 41 42 43 44 42 42 40 39 38 36 24 15 30 21 22 23 24 29 29 22 16
67 70 70 71 68 69 74 74 75 75 74 73 69 64 64 59 53 53 50 44 45 41 43 36 35 44 45 46 45 48 46 43 40 43 29 27 24 25 27 38 22 20 18
68 67 71 74 74 73 76 76 77 76 77 77 75 70 67 64 60 59 57 54 48 48 38 37 35 34 40 42 44 44 45 42 42 31 36 31 27 24 28 35 22 22 20
Wind_Direction_850mb
159 148 124 130 117 127 139 123 115 114 110 107 101 97 96 97 94 93 90 91 101 97 89 83 78 76 76 77 75 70 66 69 71 68 75 74 74 75 75 70 63 60 57
161 139 127 124 121 127 137 139 126 116 112 106 99 101 103 99 95 90 77 85 93 92 85 78 75 75 78 77 74 76 82 74 64 50 74 75 71 75 78 73 63 59 61
147 137 131 131 124 134 129 146 141 120 115 107 96 89 101 104 98 91 75 81 90 87 80 76 77 80 81 80 83 89 86 81 79 58 56 70 65 63 75 68 63 69 75
128 126 128 130 126 116 114 138 152 150 125 111 99 96 97 106 104 87 81 88 88 90 85 82 84 86 86 87 88 84 80 90 101 90 72 72 70 73 66 67 67 70 73
129 127 122 113 117 110 103 122 149 150 142 140 130 121 103 105 108 102 95 95 88 86 80 80 81 82 81 84 88 83 74 71 53 77 75 75 77 66 66 67 66 64 63
142 126 129 122 127 111 98 98 106 126 136 143 147 142 124 105 109 108 97 91 92 81 78 78 79 81 85 87 93 95 95 85 69 64 71 72 71 69 68 66 66 64 61
140 132 129 131 121 116 108 101 103 111 129 139 145 147 137 122 114 113 110 100 100 90 86 85 85 83 85 86 88 89 87 83 69 70 72 72 70 68 66 65 63 60 58
142 136 133 137 125 120 117 114 113 117 121 126 129 135 145 154 145 106 118 113 103 99 94 86 83 80 82 85 84 84 84 78 65 72 72 72 69 67 64 61 58 56 53
160 145 143 144 138 133 126 120 117 118 119 119 121 126 132 146 154 120 120 114 111 98 88 85 83 83 82 84 84 84 81 72 69 69 72 71 68 64 59 55 51 48 45
164 156 156 151 149 143 136 129 122 122 122 120 121 122 121 125 129 123 122 121 116 105 96 89 85 83 82 82 82 80 77 79 65 69 66 65 62 58 52 47 43 42 40
167 169 166 165 160 155 150 144 136 132 130 128 126 123 128 128 133 126 121 131 126 115 99 86 86 91 90 84 82 76 79 76 70 68 60 55 52 47 42 35 30 29 29
167 177 191 177 169 170 165 160 152 147 143 140 138 135 122 130 118 122 120 129 132 121 106 92 91 97 104 93 97 82 80 73 64 66 52 45 38 31 23 18 16 17 19
181 171 196 184 190 180 173 177 167 169 165 155 156 141 142 143 148 138 135 135 139 135 127 110 93 80 88 87 93 95 91 86 58 57 43 32 24 16 8 4 5 7 9
195 187 196 182 201 206 187 185 179 185 184 182 175 172 163 160 165 153 161 158 157 167 136 144 105 93 98 95 83 88 87 70 61 25 30 15 9 2 355 353 350 352 352
205 195 191 197 193 211 209 200 192 189 202 200 197 193 189 181 180 180 175 180 190 189 193 186 182 118 90 66 59 53 53 40 17 7 358 355 346 343 341 344 352 349 348
213 213 204 201 201 214 215 216 208 203 201 213 213 208 209 212 208 209 207 213 214 213 213 216 216 228 286 4 353 15 355 337 342 350 342 334 332 339 347 354 355 350 352
219 215 216 211 209 211 224 216 219 213 220 221 222 218 220 225 227 231 232 234 237 238 240 245 243 245 255 265 299 326 327 319 321 324 322 319 318 337 346 348 351 352 353
219 220 221 215 217 217 219 226 220 227 222 223 232 232 227 229 234 236 242 240 243 238 243 246 250 259 279 283 284 297 310 310 310 314 313 313 321 328 347 349 346 346 346
218 222 222 222 218 219 222 226 230 227 235 231 229 236 240 238 236 240 230 239 235 248 239 237 250 256 248 269 282 287 291 302 302 306 311 305 308 326 337 336 331 334 335
214 224 224 225 222 221 222 226 231 235 236 237 238 237 242 244 242 242 235 232 247 252 256 242 240 247 258 271 277 306 292 291 290 288 292 292 294 323 322 324 333 334 335
212 214 219 225 227 222 222 223 230 233 237 240 242 244 245 250 248 247 246 240 245 257 254 242 243 243 256 263 280 300 294 288 283 287 265 279 289 302 305 322 331 325 329
216 214 212 223 228 225 227 230 234 236 242 247 248 245 248 250 250 249 253 246 251 249 242 245 252 254 257 262 262 273 285 252 253 269 260 241 285 281 293 308 323 317 326
220 217 219 225 224 224 228 229 232 233 237 240 241 243 243 247 246 250 253 243 244 244 246 250 254 259 262 260 259 248 231 229 229 233 240 243 253 255 283 304 315 310 318
229 226 226 228 227 227 227 229 231 235 237 241 243 244 250 246 241 244 247 242 240 243 243 245 250 254 260 260 262 259 255 255 251 230 218 241 234 253 273 307 306 303 314
234 230 230 230 229 229 229 234 235 239 242 245 244 244 245 247 241 238 241 242 240 245 248 248 259 258 257 261 263 262 258 258 262 255 219 230 233 237 274 306 297 289 299
240 236 231 230 232 232 232 236 237 241 243 242 244 242 244 246 245 241 239 238 240 242 240 251 262 268 261 262 261 261 262 265 274 252 246 243 248 239 269 295 281 277 301